Miscellaneous Local Product
Issued by NWS North Platte, NE

Home | Current Version | Previous Version | Text Only | Print | Product List | Glossary On
Versions: 1 2 3 4 5 6 7 8 9 10 11 12 13 14 15 16 17 18 19 20 21 22 23 24 25 26 27 28 29 30 31 32 33 34 35 36 37 38 39 40 41 42 43 44 45 46 47 48 49 50
000
AXUS43 KLBF 310710
MISLBF


WESTERN AND NORTH CENTRAL NEBRASKA HOURLY WEATHER ROUNDUP
NATIONAL WEATHER SERVICE NORTH PLATTE NE
200 AM CDT THU JUL 31 2014

***STATIONS NOT REPORTING VARIABLES SUCH AS SKY/WEATHER OR
PRESSURE ARE PROVIDED BY THE NEBRASKA DEPARTMENT OF
ROADS...RAWS...AND APRS NETWORKS...AND ARE NOT UNDER
NATIONAL WEATHER SERVICE QUALITY CONTROL***

...OBSERVATIONS IN AND NEAR THE EASTERN PANHANDLE OF NEBRASKA...

CITY           SKY/WX    TMP DP  RH WIND       PRES   REMARKS
PINE RIDGE     MOCLDY    54  51  90 E3        30.17S
CHADRON        CLOUDY    61  52  72 CALM      30.17S
ALLIANCE       CLOUDY    57  55  93 W7        30.21S
SIDNEY         PTCLDY    58  56  93 W6        30.26F
WHITECLAY        N/A     55  47  73 E6          N/A
RUSHVILLE        N/A     61  53  76 W6          N/A
GORDON           N/A     65  52  63 NW8         N/A
CRESCENT LAKE    N/A     61  57  88 SW5         N/A
LISCO            N/A     64  57  77 CALM        N/A
BIG SPRINGS      N/A     61  58  91 W3          N/A
$$

...OBSERVATIONS IN NORTH CENTRAL NEBRASKA...

CITY           SKY/WX    TMP DP  RH WIND       PRES   REMARKS
VALENTINE      CLEAR     61  52  72 SW8       30.09F
THEDFORD       MOCLDY    65  57  77 SW5       30.15F
AINSWORTH      PTCLDY    64  53  67 S8        30.11F
O`NEILL        CLEAR     64  59  85 SE6       30.13F
ORD            MOCLDY    64  58  80 SE3       30.13S
BROKEN BOW     PTCLDY    56  54  93 CALM      30.15F
BROWNLEE         N/A     66  56  71 SW5         N/A
SPRINGVIEW       N/A     65  56  71 CALM        N/A
DUNNING          N/A     65  58  76 E3          N/A
ROSE             N/A     67  61  81 E3          N/A
NEWPORT          N/A     61  58  91 SE7         N/A
SARGENT          N/A     62  57  84 CALM        N/A
COMSTOCK         N/A     67  62  85 S5          N/A
CHAMBERS         N/A     62  58  86 CALM        N/A
EWING            N/A     61  57  85 CALM        N/A
$$

...OBSERVATIONS IN SOUTHWEST NEBRASKA AND FAR NORTHEAST COLORADO...

CITY           SKY/WX    TMP DP  RH WIND       PRES   REMARKS
WRAY             N/A    N/A N/A N/A SW5       30.25F
HOLYOKE        FAIR      59  55  88 W5        30.24F
IMPERIAL       PTCLDY    59  56  89 W7        30.22F
OGALLALA       PTCLDY    55  54  95 W5        30.21S
NORTH PLATTE   PTCLDY    57  55  93 CALM      30.17F
MCCOOK         CLEAR     62  59  90 W7        30.19F
LEXINGTON      CLEAR     62  57  84 SW3       30.17S
PAXTON           N/A     62  58  87 CALM        N/A
SUTHERLAND       N/A     59  56  91 W6          N/A
BRADY            N/A     63  56  77 CALM        N/A
GOTHENBURG       N/A     67  53  61 S3          N/A
CALLAWAY         N/A     56  54  94 S3          N/A
$$

...SOME WEATHER OBSERVATIONS FROM AROUND THE REGION...

CITY           SKY/WX    TMP DP  RH WIND       PRES   REMARKS
DENVER         CLOUDY    59  56  89 CALM      30.32F
LARAMIE        CLOUDY    53  51  93 CALM      30.38F
CHEYENNE       CLOUDY    57  51  80 W6        30.33F
SCOTTSBLUFF    MOCLDY    61  58  90 NE6       30.22F
RAPID CITY     CLEAR     61  50  67 N8        30.17F
PIERRE         PTCLDY    64  56  75 E7        30.06F
WINNER         FAIR      68  55  63 S7        30.05F
SIOUX FALLS    CLEAR     58  54  86 CALM      30.10S
OMAHA          PTCLDY    61  57  87 CALM      30.11F
GRAND ISLAND   CLEAR     61  55  81 SW5       30.15F
KANSAS CITY    PTCLDY    65  57  75 N3        30.10F
WICHITA        PTCLDY    63  61  93 N3        30.13S
HAYS           PTCLDY    61  54  77 W5        30.17F
LIBERAL        CLEAR     57  54  88 NW7       30.25S
GOODLAND       CLEAR     58  56  93 W7        30.26F
$$



USA.gov is the U.S. government's official web portal to all federal, state and local government web resources and services.